Home   Weather   Mount Pearl   Past weeks

Flag for Canada Past Weather in Mount Pearl, Newfoundland and Labrador, Canada — Yesterday and Last 2 Weeks

46 °F

Passing clouds.

Feels Like: 42 °F
Forecast: 41 / 50 °F
Wind: 9 mph from Southwest

Location: St. John's

Current Time: Oct 24, 2016 at 10:58:37 PM

Latest Report: Oct 24, 2016 at 10:30 PM

Visibility: 15 mi

Pressure: 29.77 "Hg

Humidity: 82%

Dew Point: 41 °F

Location of Mount PearlLocation

Past Weather in Mount Pearl — Graph


Mount Pearl Temperature Yesterday

Maximum temperature yesterday: 70 °F (at 3:30 AM)
Minimum temperature yesterday: 57 °F (at 10:30 PM)
Average temperature yesterday: 65 °F

High & Low Weather Summary for the Past Weeks

High70 °F (Oct 23, 3:30 AM)100% (Oct 10, 6:30 AM)30.51 "Hg (Oct 10, 6:30 AM)
Low32 °F (Oct 21, 2:30 AM)33% (Oct 13, 11:30 AM)29.41 "Hg (Oct 11, 3:30 AM)
Average48 °F85%29.99 "Hg
* Reported Oct 9 9:30 PM — Oct 24 9:30 PM, Mount Pearl, Weather by CustomWeather, © 2016

Note: Actual official high and low records may vary slightly from our data, if they occured in-between our weather recording intervals... More about our weather records


Mount Pearl Weather History for the Previous 24 Hours

Scroll right to see more
Time TempWeatherWind HumidityBarometerVisibility
9:30 PM
Mon, Oct 24
46 °FPassing clouds.13 mph82%29.76 "Hg15 mi
8:30 PM46 °FPartly cloudy.13 mph82%29.75 "Hg15 mi
7:30 PM46 °FPassing clouds.13 mph76%29.71 "Hg15 mi
6:30 PM46 °FPassing clouds.22 mph76%29.69 "Hg15 mi
5:30 PM48 °FPassing clouds.28 mph66%29.66 "Hg15 mi
4:30 PM48 °FPassing clouds.32 mph71%29.63 "Hg15 mi
3:30 PM50 °FPassing clouds.37 mph62%29.61 "Hg15 mi
2:30 PM50 °FPassing clouds.38 mph62%29.58 "Hg15 mi
1:30 PM48 °FPartly sunny.25 mph76%29.59 "Hg15 mi
12:30 PM50 °FPassing clouds.29 mph71%29.57 "Hg15 mi
11:30 AM50 °FScattered clouds.23 mph76%29.57 "Hg15 mi
10:30 AM52 °FScattered clouds.21 mph82%29.56 "Hg15 mi
9:30 AM52 °FScattered clouds.17 mph88%29.56 "Hg15 mi
8:30 AM50 °FBroken clouds.17 mph94%29.55 "Hg15 mi
7:30 AM50 °FMostly cloudy.15 mph88%29.52 "Hg15 mi
6:30 AM50 °FSprinkles. Overcast.13 mph88%29.51 "Hg12 mi
5:30 AM50 °FOvercast.13 mph88%29.50 "Hg15 mi
4:30 AM50 °FSprinkles. Mostly cloudy.15 mph94%29.50 "Hg12 mi
3:30 AM52 °FLight rain. Mostly cloudy.9 mph88%29.50 "Hg12 mi
2:30 AM52 °FLight rain. Overcast.15 mph94%29.51 "Hg12 mi
1:30 AM54 °FLight rain. Overcast.12 mph88%29.51 "Hg12 mi
12:30 AM54 °FLight rain. Overcast.18 mph94%29.52 "Hg12 mi
11:30 PM
Sun, Oct 23
57 °FLight rain. Overcast.20 mph88%29.54 "Hg12 mi
10:30 PM57 °FMostly cloudy.16 mph100%29.53 "Hg12 mi
Weather by CustomWeather, © 2016

See weather overviewHow to use our weather pages